Theta_e
304 303 304 304 304 301 303 306 302 306 304 310 314 316 317 320 327 329 333 335 337 337 341 345 346 350 352 351 351 350 354 357 356 358 362 364 364 365 368 369 368 368 368 368
303 303 303 303 305 305 303 303 303 305 307 314 315 315 318 322 326 328 332 334 337 340 343 344 346 350 348 344 345 348 350 353 356 360 363 364 366 367 368 366 366 367 366 367
303 303 304 301 306 307 307 308 308 306 313 312 314 318 320 325 327 329 332 334 339 341 342 343 347 352 344 342 346 350 353 354 358 362 363 365 367 366 366 365 366 367 367 366
306 305 298 307 310 309 308 311 310 310 312 313 316 319 323 329 329 330 332 335 340 341 340 342 345 347 346 346 349 354 357 358 362 363 364 365 365 363 362 364 366 366 365 363
306 305 306 310 313 313 313 312 317 317 321 323 327 328 324 333 330 333 333 337 341 341 340 344 344 347 347 344 350 354 356 358 362 364 362 362 361 360 363 365 364 362 359 358
305 303 300 311 315 320 319 310 318 319 321 323 328 316 322 340 338 333 334 335 340 340 340 339 339 343 346 346 352 355 357 360 363 363 362 361 362 364 366 365 359 356 354 350
307 305 308 314 317 320 309 311 322 323 324 327 327 328 331 342 342 343 339 335 338 342 341 341 342 343 346 346 345 353 358 361 362 362 363 364 365 365 362 357 357 353 348 344
306 306 304 320 318 313 320 324 325 326 326 325 332 333 340 342 345 349 346 337 336 341 342 342 342 343 347 349 353 357 359 360 361 361 359 362 364 360 358 356 353 349 344 338
311 312 319 322 321 324 325 325 326 328 329 327 328 333 341 344 349 350 350 347 345 343 345 346 345 346 342 351 357 357 358 359 359 362 362 362 358 355 352 355 350 347 341 336
315 317 319 322 324 326 326 325 327 332 328 328 328 335 341 344 346 347 345 346 352 349 348 350 356 350 349 358 358 358 359 358 359 358 355 355 352 353 351 350 346 345 339 334
314 318 321 323 325 326 326 328 328 331 334 328 330 335 341 341 340 344 341 343 344 348 349 348 340 333 339 350 358 354 356 355 356 349 346 335 327 333 342 336 338 342 336 333
314 315 318 315 320 324 326 325 327 329 332 335 329 332 339 339 340 343 344 345 348 349 347 343 343 339 349 359 359 350 353 354 349 341 339 334 329 321 306 307 304 303 304 317
317 322 320 320 323 327 326 326 329 330 332 331 335 331 337 337 338 334 344 347 349 350 350 349 350 348 357 357 354 348 345 337 329 332 334 331 333 331 319 313 304 301 300 300
324 322 316 319 318 326 327 328 329 333 332 333 333 331 334 335 336 340 344 349 347 348 346 349 346 344 353 355 350 343 340 326 335 331 335 333 332 330 327 327 321 316 305 307
316 318 317 322 325 326 328 329 330 330 331 333 331 331 333 334 336 342 348 349 346 346 346 349 340 338 343 345 347 347 343 340 336 336 336 329 329 327 326 325 323 319 317 310
312 314 316 315 321 324 325 326 329 331 331 332 334 330 334 335 337 339 347 349 346 345 347 346 341 340 342 345 349 347 344 330 331 332 327 328 327 325 324 324 322 322 321 319
307 308 311 312 314 315 318 326 331 332 333 332 339 339 335 337 337 339 346 348 353 352 350 348 344 342 343 345 344 341 340 335 329 330 327 327 326 325 324 323 321 320 319 315
311 311 312 312 313 315 321 326 330 334 334 335 343 345 339 337 337 341 345 346 349 346 345 346 343 341 343 344 341 340 336 334 333 331 330 328 326 325 323 321 320 318 315 310
312 311 312 313 315 319 323 325 332 336 337 338 338 342 345 341 343 341 344 342 343 342 343 342 332 335 337 338 337 338 336 334 332 331 331 322 324 324 322 320 318 316 313 310
320 314 313 315 318 324 325 328 335 336 337 337 339 342 340 344 338 338 340 339 341 346 338 334 335 338 335 333 333 336 333 332 330 328 326 326 324 322 321 313 317 315 312 311
319 318 315 317 321 326 330 333 335 336 337 339 337 337 339 340 337 338 336 335 335 331 335 328 335 334 334 330 332 331 330 329 328 326 324 324 321 321 319 318 316 315 313 312
322 318 317 319 322 326 331 335 337 338 338 338 338 339 336 335 336 335 340 339 331 319 328 331 331 326 329 327 329 328 328 328 327 325 324 323 321 320 319 318 316 314 314 314
329 329 327 326 325 327 332 334 335 337 337 338 335 335 334 334 334 332 332 337 332 321 327 328 321 319 320 329 326 327 327 326 325 324 323 322 322 320 319 317 316 315 314 314
327 329 331 331 331 331 331 333 332 336 335 335 337 335 333 331 329 333 333 321 316 319 327 321 319 317 320 325 326 326 325 325 324 324 323 312 321 319 318 316 315 314 313 307
327 327 328 329 329 330 331 332 330 333 333 332 334 334 333 333 329 326 324 325 316 322 323 314 315 316 326 326 327 326 325 325 324 323 321 320 318 316 316 315 313 311 309 307
324 325 326 329 329 330 331 330 329 331 332 331 331 334 333 331 324 324 324 322 325 320 324 320 322 325 326 326 326 326 325 323 321 322 320 319 317 316 315 314 311 309 308 307
322 312 326 326 328 329 329 329 329 330 330 334 330 332 332 330 327 323 319 323 324 326 326 325 323 320 324 323 325 324 324 323 317 321 320 319 317 316 314 312 310 309 308 307
Wind_Speed
3 2 5 4 11 13 12 6 7 9 8 14 17 12 11 0 12 12 15 16 17 19 17 16 16 15 13 13 9 13 14 10 10 8 7 8 9 9 8 7 6 7 6 5
3 3 3 3 4 7 6 2 12 13 13 11 17 8 11 6 14 16 16 17 16 16 18 19 19 16 13 8 9 10 10 9 8 8 8 9 9 9 8 7 5 5 4 4
6 1 4 5 13 12 6 8 8 6 8 5 8 9 10 5 15 17 16 18 18 20 20 19 20 16 14 11 10 11 11 10 8 8 8 9 9 9 8 7 7 6 5 6
4 3 5 3 1 4 9 8 12 12 10 8 11 13 12 8 11 13 15 16 17 17 19 20 20 17 13 12 12 11 12 11 10 10 10 10 9 9 8 7 7 7 6 4
3 5 3 3 4 2 3 5 6 4 7 10 8 9 8 1 5 11 13 14 17 17 18 16 16 14 15 16 13 13 13 14 12 11 11 10 9 9 8 8 7 6 6 6
4 4 7 2 4 1 2 5 3 7 8 9 3 5 2 7 4 7 10 14 17 19 19 18 17 16 14 15 15 13 11 13 12 12 11 10 10 9 8 8 8 7 7 7
6 5 3 1 2 3 6 3 9 8 10 8 5 3 7 3 3 4 7 13 16 19 19 19 17 15 14 12 9 9 11 13 11 12 12 11 10 8 9 9 9 8 8 7
3 4 6 4 4 3 6 7 10 11 10 12 9 5 6 3 6 6 8 8 11 13 12 14 10 10 12 9 10 9 11 13 12 11 9 9 9 8 9 9 9 9 8 7
5 2 3 2 4 3 6 9 10 13 14 13 10 3 5 6 9 9 11 11 11 11 13 12 11 3 7 4 4 8 10 11 12 11 8 8 8 8 7 7 7 7 6 6
3 2 1 2 1 5 9 10 10 11 12 11 8 2 8 9 10 11 10 11 13 16 17 15 13 11 6 7 7 10 13 13 13 12 11 9 7 6 6 6 5 6 6 6
1 3 0 4 2 8 10 10 10 10 11 10 8 3 6 9 11 12 11 12 14 14 15 15 9 9 11 19 14 13 14 13 14 12 12 8 8 4 4 3 2 6 6 5
3 4 3 4 7 7 10 12 10 10 11 12 6 3 7 8 9 11 12 10 11 13 14 17 14 12 17 20 18 11 10 11 9 11 9 10 9 11 18 11 16 16 13 8
5 4 4 8 6 2 10 11 10 9 7 10 8 4 7 8 6 6 6 8 10 9 9 7 8 13 14 18 17 19 13 5 6 7 5 10 9 8 13 10 16 17 16 15
3 2 6 1 5 9 9 9 8 7 5 6 5 5 6 8 8 10 9 9 8 9 5 9 10 9 10 17 16 16 17 23 14 11 12 10 12 9 8 8 9 9 9 9
10 10 10 4 5 6 7 8 10 8 8 6 1 7 8 11 10 9 8 8 10 10 9 10 13 10 9 7 14 17 15 11 10 10 7 8 9 9 9 9 8 9 9 8
8 9 9 12 9 6 6 9 9 7 6 4 1 7 9 10 10 8 9 10 13 12 13 13 13 13 13 7 8 9 9 10 10 10 11 10 9 8 9 9 8 7 5 6
11 12 10 10 8 9 9 9 8 9 5 3 3 6 10 10 9 11 11 11 11 15 14 14 12 8 20 14 11 8 9 10 12 10 11 10 9 9 8 8 7 7 6 6
19 20 19 17 11 9 9 10 10 9 8 4 4 7 10 12 13 12 11 10 8 13 13 13 13 13 16 18 14 9 10 11 11 11 11 11 10 9 8 8 8 8 7 7
17 19 19 18 16 13 12 10 11 9 7 5 8 9 9 12 12 13 12 11 12 15 16 10 6 6 11 15 17 12 12 13 12 11 10 12 11 9 9 8 8 8 7 6
14 16 17 16 15 13 13 11 8 6 6 7 8 8 9 9 11 13 14 15 12 6 10 12 12 10 9 13 14 12 13 12 12 10 10 10 10 10 9 9 8 8 7 6
11 10 12 13 12 13 13 7 6 5 6 8 9 10 10 9 10 10 12 11 11 11 12 16 13 10 8 9 8 9 10 11 11 11 12 11 11 10 9 9 8 7 7 6
7 6 9 11 11 12 8 6 5 5 8 9 9 9 9 10 9 11 12 10 6 11 9 8 9 12 11 12 9 9 9 11 11 10 10 10 9 10 9 8 8 7 7 6
10 8 6 7 8 6 4 4 4 5 7 8 9 9 11 8 8 8 9 8 7 7 7 7 17 23 18 9 8 9 10 11 11 10 10 9 9 9 8 9 8 8 7 6
10 9 7 4 4 6 7 6 4 5 5 6 8 11 9 7 3 3 2 8 9 9 7 9 15 20 15 8 9 9 10 10 11 11 10 10 9 9 8 8 8 6 6 6
10 9 7 5 5 6 6 6 3 3 4 5 6 8 7 7 7 5 5 7 11 7 8 11 14 14 10 10 10 10 9 9 10 10 10 10 9 9 9 9 8 8 7 6
10 7 6 7 7 5 7 6 7 6 4 6 6 6 6 6 6 6 5 8 9 11 10 10 9 8 9 9 9 9 9 10 10 10 10 10 10 10 9 9 9 8 7 7
7 4 5 5 5 6 6 7 8 9 8 7 8 7 7 8 8 10 11 9 9 9 10 9 8 7 8 8 9 9 8 8 9 9 9 9 9 9 9 9 8 8 8 7
Wind_Direction
186 177 185 192 178 190 205 209 228 255 217 258 264 268 281 358 171 193 177 181 180 177 176 170 177 179 191 193 169 164 179 174 160 173 196 204 206 203 194 182 200 207 211 218
130 146 187 225 239 205 246 216 248 270 271 274 278 256 261 206 178 192 188 189 183 173 164 171 181 183 194 178 185 167 166 184 159 170 180 193 193 184 180 157 179 186 194 188
153 98 161 232 229 200 202 211 232 231 273 332 309 269 262 218 187 193 194 181 180 177 173 180 184 180 182 165 172 168 168 174 160 165 169 178 173 169 163 160 159 166 163 171
125 176 214 41 90 280 236 246 228 263 278 288 288 282 284 264 199 204 203 169 178 172 177 184 187 183 162 159 165 169 165 143 149 159 159 160 163 158 159 155 160 154 153 138
204 200 348 246 147 184 247 230 205 267 315 306 304 277 268 176 212 221 203 174 174 175 177 176 174 165 157 171 177 177 152 140 151 155 145 157 157 158 150 150 150 145 139 137
164 194 209 244 119 66 198 256 117 320 320 308 274 233 134 52 176 206 181 177 174 173 173 178 183 168 162 167 174 176 145 132 138 142 154 157 152 150 146 149 145 144 125 101
180 218 238 340 42 147 217 5 325 329 317 294 253 328 350 26 115 182 179 179 177 175 180 183 178 175 189 173 146 143 135 131 138 146 157 149 153 157 154 154 134 124 118 100
162 187 212 27 135 242 351 327 333 336 327 303 271 275 51 64 105 119 126 145 176 171 179 184 180 193 198 182 145 146 140 136 139 154 148 147 159 161 156 147 138 134 126 116
228 52 84 42 77 6 338 315 327 323 318 311 287 257 88 117 115 118 123 132 150 154 153 169 183 195 249 274 152 138 136 140 138 134 133 143 158 158 148 144 148 154 150 146
198 69 308 148 95 35 359 326 325 337 330 326 306 315 133 132 131 128 124 130 144 146 145 145 139 113 64 288 216 163 147 152 139 129 134 143 156 160 160 163 165 161 154 156
181 257 193 114 327 329 348 357 350 345 354 348 338 11 154 139 135 142 143 137 142 139 140 155 190 179 103 229 186 161 160 159 140 136 138 122 92 67 105 54 293 169 150 129
163 118 50 348 328 337 341 346 344 338 346 358 344 346 153 157 158 160 164 158 176 183 188 201 203 206 174 167 165 139 144 158 152 139 150 134 125 96 51 56 69 66 59 90
154 164 263 300 304 348 331 339 348 327 326 336 357 125 181 172 191 193 186 197 180 168 169 160 172 164 174 151 133 137 123 150 126 114 157 143 141 138 124 73 68 70 71 66
177 279 293 157 352 339 325 334 336 329 326 359 335 159 175 183 180 188 196 203 148 119 141 145 101 93 131 110 120 135 162 187 167 151 162 171 148 155 137 148 141 113 69 92
257 244 262 306 304 328 317 327 339 4 359 32 89 187 179 184 187 185 175 193 139 125 139 144 124 110 101 119 149 161 164 174 142 137 159 140 137 145 146 145 139 130 136 122
298 294 280 281 281 296 307 312 306 325 3 19 96 203 200 204 197 193 184 187 153 152 157 151 126 134 104 118 160 152 147 136 144 150 144 149 148 150 143 148 149 136 131 114
278 282 279 269 262 269 271 285 279 288 311 267 244 206 195 191 192 195 198 204 164 146 161 175 150 151 132 156 180 166 155 153 139 147 153 151 153 160 149 146 137 120 118 94
251 259 260 262 259 267 262 262 268 266 259 240 203 197 181 187 190 190 201 193 175 149 175 163 155 154 150 152 158 164 152 151 163 157 154 157 158 151 147 133 128 126 114 114
243 245 246 245 243 236 252 255 251 247 240 227 202 215 202 189 190 187 193 199 188 177 180 164 162 182 159 155 148 151 154 157 155 156 155 133 143 141 134 135 131 129 133 138
256 236 240 240 234 229 240 244 239 225 217 214 212 200 198 187 182 184 186 197 200 194 151 147 153 160 148 171 147 139 146 147 141 139 147 147 141 139 134 133 141 146 154 152
276 258 242 233 232 233 234 245 230 235 235 213 206 205 192 190 178 178 182 191 181 176 163 154 148 147 141 130 106 120 139 143 141 141 154 148 143 142 141 145 152 160 162 167
320 253 234 231 230 237 247 240 248 247 228 223 214 207 196 190 186 188 205 215 171 181 171 157 132 122 125 132 130 141 153 149 139 147 146 148 149 147 148 154 160 167 176 171
340 325 287 236 228 229 197 212 219 232 235 222 194 185 186 191 190 185 197 192 172 194 174 170 126 125 133 138 132 146 152 143 147 148 145 147 148 149 154 167 167 172 175 174
344 339 314 297 194 191 192 181 178 200 201 197 214 202 188 177 179 229 171 141 135 165 155 129 130 137 125 132 134 147 154 159 156 145 145 145 149 152 165 161 165 171 168 169
343 334 317 281 238 220 192 189 215 215 177 192 178 182 188 205 202 147 161 152 149 142 127 133 138 139 127 142 153 161 161 158 148 148 151 156 162 158 161 161 163 170 177 177
339 330 317 290 277 252 229 225 241 243 196 184 176 181 168 176 133 121 130 141 164 148 147 136 167 161 135 150 158 159 161 148 154 155 161 161 165 162 168 169 166 172 180 182
322 320 315 295 271 257 245 232 230 227 197 184 177 180 170 162 165 144 153 166 159 150 146 155 160 134 142 152 162 161 161 157 158 163 172 168 169 172 171 169 168 172 182 185